Wind_Speed
5 2 5 11 6 7 6 4 4 3 4 3 5 1 1 17 13 9 7 8 12 13 16 28 32 38 39 36 31 28 26 24 24 17 12 13 15 21 16 15 13 13 7 8
2 7 9 10 6 8 9 1 2 3 8 1 2 7 6 8 8 11 9 8 12 11 14 22 29 33 37 37 35 30 27 24 23 17 15 11 18 28 23 18 15 13 7 11
7 5 9 11 8 10 12 5 7 6 10 2 5 6 6 4 5 9 7 7 5 15 18 17 24 30 33 35 37 31 32 25 23 22 15 9 22 27 21 17 15 12 10 12
7 8 9 9 10 9 7 7 7 13 10 4 7 3 4 7 8 9 9 13 9 10 19 16 23 28 32 35 38 32 35 28 28 25 17 12 22 23 23 21 19 17 14 14
9 9 7 14 12 8 15 7 8 12 6 4 3 1 5 5 8 13 10 10 10 10 19 20 24 32 33 35 37 35 36 29 29 24 20 12 19 29 23 19 19 18 14 15
9 4 7 8 10 7 12 6 0 5 5 3 8 5 5 6 19 17 15 14 13 10 18 19 29 33 32 35 36 38 38 32 29 27 22 15 20 25 23 22 19 21 17 11
3 6 6 5 4 7 2 6 3 1 2 6 8 5 13 18 18 19 22 22 16 10 15 19 19 26 31 34 34 38 42 39 34 30 27 21 14 21 25 25 23 21 21 15
7 10 8 3 11 7 5 9 6 6 5 11 9 7 9 22 13 15 19 20 20 16 15 21 22 32 36 38 37 37 39 40 40 35 32 26 17 16 18 26 27 25 25 23
5 5 2 11 8 6 5 5 9 4 1 2 4 6 5 3 9 8 16 10 17 20 21 22 24 33 35 39 40 39 39 39 43 39 35 30 22 16 19 26 27 26 23 21
9 2 6 10 4 7 9 6 1 2 5 5 4 2 5 2 2 3 10 10 18 21 22 22 20 31 36 39 40 39 40 39 43 41 39 35 30 22 19 18 28 24 20 17
7 6 9 4 7 8 2 3 2 4 4 6 3 6 7 10 6 9 9 8 5 6 4 12 18 32 32 33 36 37 37 36 36 41 41 39 35 28 23 22 22 22 21 14
7 7 6 15 6 4 4 7 8 5 6 2 5 5 6 11 12 17 14 10 11 3 5 10 18 28 29 32 35 36 36 34 36 38 40 41 39 34 29 28 26 22 17 15
1 2 2 9 6 2 5 5 6 4 3 9 7 5 3 6 23 27 24 15 10 2 5 14 20 19 30 29 33 34 37 37 35 36 35 38 41 41 38 34 33 29 24 20
3 4 6 8 6 3 2 4 3 8 5 4 7 5 9 5 11 16 21 18 14 15 16 15 8 4 21 22 27 33 35 37 35 37 37 36 39 42 43 42 40 37 34 28
4 2 3 5 5 2 3 4 7 3 8 11 8 8 1 6 11 9 14 15 18 16 16 16 14 14 17 10 7 21 26 33 34 33 34 36 41 42 42 42 40 41 42 40
3 2 1 4 3 5 4 15 12 4 4 7 16 13 8 14 18 15 13 13 16 14 14 12 13 14 17 17 10 1 15 24 29 33 36 36 33 34 39 41 41 40 39 42
2 2 3 4 3 5 6 13 2 12 15 3 9 9 16 16 18 12 11 13 12 12 11 11 10 10 13 16 14 13 10 4 27 31 33 33 33 34 36 40 38 40 41 40
3 3 2 2 4 4 5 4 15 21 17 17 15 12 7 21 17 15 12 13 12 14 13 10 11 13 17 18 18 15 12 10 5 28 29 31 33 36 35 33 36 39 39 39
1 4 3 4 4 4 1 5 5 4 11 15 10 9 11 9 17 15 11 12 13 12 10 14 16 16 18 20 20 16 16 14 12 9 26 32 34 36 34 35 38 41 35 34
6 5 4 3 4 3 2 9 2 3 4 9 9 8 4 3 6 4 6 10 11 14 15 16 18 16 19 22 22 18 16 15 17 19 12 9 33 37 37 39 39 39 37 37
4 4 3 2 3 3 3 17 12 2 1 4 7 3 9 8 3 6 6 6 14 12 11 13 14 14 17 17 16 16 18 18 20 21 20 13 13 33 38 38 38 35 34 33
5 1 2 2 5 4 18 5 5 9 2 3 7 7 10 10 8 8 8 5 10 8 11 11 14 12 11 14 14 12 13 20 22 22 21 19 17 18 33 35 34 33 31 30
5 3 3 3 4 2 5 13 8 8 8 2 8 7 8 9 10 9 8 7 6 6 8 9 10 13 14 17 14 14 19 22 25 23 22 22 20 13 26 30 31 28 30 30
7 6 4 4 7 8 13 11 5 5 8 1 1 7 8 7 6 5 5 6 9 14 14 15 14 13 15 17 18 19 22 23 22 22 21 20 21 19 11 28 29 28 27 26
3 6 7 3 8 8 7 12 14 11 9 6 4 4 7 9 4 2 2 2 3 6 9 9 9 9 12 15 17 21 24 24 23 20 20 22 22 20 16 15 20 31 33 31
2 2 3 3 4 3 7 11 11 12 12 9 8 7 2 10 10 10 6 6 3 3 1 4 6 6 9 11 13 18 21 23 24 21 21 21 20 19 18 18 20 10 15 23
Wind_Direction
263 153 216 240 210 222 223 252 194 113 187 100 212 113 124 195 196 222 196 204 203 176 174 167 164 165 165 167 168 171 176 170 174 185 178 160 163 177 171 163 149 142 138 162
289 217 226 240 215 253 259 355 71 47 173 70 221 252 257 192 198 191 183 204 190 170 166 168 164 163 167 170 171 177 180 175 181 187 179 165 172 178 172 160 154 156 151 157
194 214 214 231 248 266 274 168 184 189 184 42 103 297 244 240 190 177 201 187 218 177 173 171 165 167 170 172 174 177 181 179 184 185 184 138 165 167 167 166 163 155 151 154
225 228 225 232 232 233 267 243 217 143 139 217 162 253 216 217 236 209 192 203 194 196 179 174 170 170 172 176 177 179 180 183 191 194 195 180 171 172 174 173 167 152 152 163
226 178 204 231 231 226 247 247 173 171 147 104 217 58 262 200 203 241 213 209 203 209 186 178 175 173 176 176 178 179 181 190 197 198 197 204 188 184 180 175 170 170 181 185
209 218 205 228 249 245 271 292 162 164 132 233 244 160 259 201 212 202 229 222 219 214 190 184 177 174 175 179 179 181 185 194 203 198 201 198 197 189 182 178 177 183 185 191
307 244 249 225 250 277 223 70 321 89 30 236 185 207 232 207 226 204 192 217 228 206 200 184 175 176 177 179 181 182 184 191 202 204 207 210 204 195 190 186 187 191 194 194
190 251 181 235 193 207 202 156 167 186 163 235 147 229 246 221 210 200 200 200 207 198 203 191 183 181 179 182 183 184 186 189 200 206 209 211 213 190 196 200 197 199 198 197
171 252 326 222 231 160 285 178 189 164 334 50 224 282 323 23 120 161 184 214 182 197 199 196 188 186 183 183 185 187 188 192 199 202 209 211 212 190 188 197 201 210 209 208
216 223 217 255 17 256 193 175 242 358 188 198 275 227 189 64 274 357 178 191 195 190 194 194 194 191 187 187 185 187 191 193 199 201 206 209 214 204 197 202 207 215 215 230
165 136 264 122 192 231 300 192 134 139 152 180 231 262 211 162 197 198 226 139 67 258 240 211 193 196 189 187 184 186 190 192 197 201 205 210 212 215 211 209 212 217 218 233
202 166 203 234 227 191 182 227 176 178 253 217 148 273 297 173 153 93 70 70 48 44 310 259 200 193 188 181 186 185 187 193 197 201 204 209 213 217 219 221 220 222 224 216
313 101 166 308 328 25 200 232 188 160 125 202 179 246 2 113 127 122 119 105 64 53 256 258 188 186 186 181 182 182 187 194 197 199 202 206 211 218 221 224 225 226 231 225
114 116 160 198 202 185 321 334 259 206 179 199 200 200 87 3 126 118 103 108 84 53 34 25 57 96 185 178 180 181 187 198 196 198 200 202 209 215 220 227 229 228 231 234
102 157 213 197 207 178 211 314 307 164 234 196 220 164 313 150 93 77 93 87 88 72 42 33 40 46 56 132 131 188 198 197 196 198 200 205 209 214 218 223 229 231 232 235
18 274 14 293 88 41 343 356 319 340 270 109 113 88 58 114 86 75 71 77 81 61 71 47 33 36 43 39 54 215 214 213 205 202 206 209 209 209 213 220 225 230 232 235
338 104 68 271 343 70 36 336 87 69 28 149 125 135 118 74 78 73 71 66 65 77 65 53 44 35 29 22 29 33 23 238 218 215 215 211 209 210 212 216 219 225 232 235
262 110 125 182 31 97 200 20 67 80 44 31 68 89 78 109 95 70 60 66 58 49 40 41 32 25 30 26 15 11 18 13 312 217 219 217 211 212 214 213 217 223 227 230
186 109 62 110 124 125 33 10 18 72 42 18 39 86 117 107 80 59 60 62 62 54 34 35 20 26 32 24 7 9 6 17 18 11 221 220 217 215 213 213 217 222 221 225
64 78 104 65 86 100 271 309 296 134 59 14 20 15 336 19 86 71 56 72 76 66 43 19 22 24 27 13 6 14 7 3 350 338 326 263 232 220 218 216 218 223 220 224
4 17 101 74 104 90 24 310 295 61 27 19 20 15 59 82 91 94 67 57 65 57 64 63 48 31 21 12 8 360 4 354 340 331 322 306 275 233 225 223 221 221 221 224
55 338 20 48 65 14 337 298 97 146 1 25 45 23 76 82 78 54 53 33 57 18 24 38 45 39 23 16 14 2 358 346 340 341 328 331 324 254 228 225 225 222 221 224
41 29 282 47 93 265 315 81 85 107 116 2 58 40 68 63 53 43 35 9 4 1 20 26 37 45 27 19 10 3 350 350 346 345 346 340 338 309 237 223 221 218 220 221
346 2 44 54 338 350 35 28 34 81 105 267 85 88 86 68 57 62 20 7 0 360 358 2 3 26 24 18 14 10 6 1 350 344 342 343 339 347 323 238 224 218 217 220
0 341 330 45 350 348 13 18 358 25 53 82 130 79 121 135 154 162 62 12 343 358 0 2 356 351 30 22 13 16 15 13 3 355 347 341 348 352 350 343 249 231 232 226
42 46 31 325 299 278 290 339 360 3 355 4 34 4 184 156 172 181 181 177 217 246 301 11 9 5 12 25 26 21 16 18 12 2 353 346 342 349 342 340 325 300 266 261
Height
750 771 785 771 769 770 776 781 783 784 780 788 794 792 788 787 785 785 782 783 782 782 785 789 795 799 804 809 812 817 821 824 827 831 833 836 836 837 838 839 840 841 841 841
764 780 762 754 759 765 770 780 789 784 783 787 794 794 783 781 776 773 775 777 777 780 784 787 791 796 800 806 810 815 820 823 825 828 831 834 834 837 839 839 840 840 842 842
773 762 749 754 760 769 769 780 787 787 785 782 793 801 786 769 771 773 771 771 773 774 780 784 788 792 798 802 807 812 817 821 824 827 830 833 835 838 840 840 840 841 842 843
764 748 753 756 761 762 786 752 757 780 794 815 788 819 785 776 774 769 770 769 770 771 773 780 785 790 793 798 805 809 815 819 822 824 828 832 833 835 837 838 839 841 843 845
762 753 757 761 757 751 763 746 756 770 785 793 801 813 785 769 780 768 763 764 764 764 767 772 778 783 788 795 801 807 813 816 820 823 826 829 831 833 835 838 839 840 842 844
752 735 744 750 743 745 740 751 755 761 778 817 787 799 790 783 754 754 752 753 755 759 761 766 773 779 784 790 797 803 810 814 817 821 824 828 830 832 833 836 838 839 840 842
753 750 739 736 752 744 749 779 813 814 823 824 781 796 769 745 732 728 738 740 744 753 755 762 768 775 780 785 791 797 803 809 814 818 822 825 829 830 831 833 836 838 839 841
780 779 749 733 747 758 760 776 812 821 822 805 777 793 757 718 712 721 723 727 733 743 749 753 756 763 770 778 784 790 796 802 809 814 818 823 826 828 829 831 834 836 838 839
777 771 729 731 731 740 755 773 761 786 789 798 784 758 727 716 722 725 726 721 723 730 737 745 750 756 763 770 776 784 790 795 802 807 814 818 822 825 828 830 832 834 837 839
751 773 743 734 728 729 742 741 774 790 807 809 789 764 769 743 735 726 731 728 721 722 732 739 746 752 756 763 769 779 785 790 795 801 807 812 817 821 825 827 829 832 835 836
739 757 754 736 747 751 750 756 757 771 782 801 805 788 737 733 733 734 725 734 734 734 735 737 741 747 754 763 767 773 781 787 793 796 800 806 811 816 820 823 826 828 830 831
733 752 771 750 730 721 734 744 755 777 785 779 786 781 719 709 724 731 739 738 738 738 735 738 738 744 748 755 763 768 776 784 788 793 795 800 805 810 814 818 821 823 825 827
728 759 777 764 747 729 736 733 742 746 761 774 781 777 718 715 715 724 735 746 747 751 748 734 727 735 742 749 758 763 772 776 783 788 793 795 800 804 807 811 816 819 821 823
726 754 763 769 758 743 741 737 732 737 767 766 761 750 737 731 720 718 726 733 742 743 741 735 734 739 742 750 755 762 769 774 779 782 787 790 793 797 801 805 810 814 817 819
732 750 740 742 740 731 732 732 731 737 736 744 742 744 741 735 732 734 731 735 736 746 751 753 752 752 752 753 761 767 770 773 774 778 782 783 786 790 795 799 802 807 811 813
735 748 737 739 730 726 731 736 728 727 726 734 731 750 733 731 733 742 744 743 747 752 755 763 765 759 758 759 763 764 767 770 772 773 774 778 783 786 787 791 794 799 803 805
743 748 759 756 739 730 760 756 740 750 746 723 742 745 737 743 746 753 755 753 755 759 759 761 765 765 764 765 764 763 764 767 768 770 771 774 777 780 782 784 788 791 794 798
747 749 757 762 748 770 764 753 749 753 755 750 747 746 751 742 752 756 757 757 759 757 762 764 766 764 765 765 766 765 763 763 764 765 768 771 772 773 776 780 782 784 787 789
739 751 761 766 772 761 763 760 758 760 775 762 761 753 754 749 749 764 765 764 763 764 768 766 768 765 766 766 766 763 761 760 761 760 760 763 766 766 768 771 772 774 778 781
740 748 758 766 766 776 769 760 749 752 779 770 767 764 759 751 766 774 769 769 771 773 771 770 768 770 767 764 764 764 763 761 760 762 758 758 761 758 761 760 763 765 769 771
761 761 767 767 771 773 765 760 750 771 791 776 772 771 766 768 772 773 772 776 772 776 779 778 776 776 771 770 768 767 763 761 761 758 756 753 752 753 754 755 756 758 760 763
780 785 779 775 781 792 765 755 762 775 779 778 775 770 767 771 771 772 773 781 773 782 779 775 775 774 776 774 772 771 767 763 759 754 753 745 743 743 746 749 749 751 753 756
794 792 795 784 787 783 779 772 769 771 778 779 774 776 769 769 772 779 778 781 782 784 780 779 776 774 775 772 773 769 766 761 757 752 746 742 737 735 737 739 741 743 746 748
793 792 789 791 795 790 786 782 781 779 780 783 779 776 776 778 781 784 785 783 781 779 777 775 775 774 773 772 770 768 763 759 756 750 746 743 738 732 732 733 733 734 737 739
804 800 803 802 799 790 787 790 788 785 783 787 781 779 784 787 790 789 789 789 789 786 783 782 780 779 774 773 772 767 763 760 756 751 746 742 737 733 729 729 730 728 728 729
806 813 813 810 815 811 800 798 796 792 789 787 784 785 787 787 792 792 791 789 787 787 787 786 786 784 780 775 772 767 765 760 754 750 748 744 738 734 732 728 726 725 725 725